,,,PA_Meas_PMT16A,,PR_Meas_QMR101_102,,RH_Meas_QMH101,,SR_Meas_QMS101,,TA_Meas_QMH101,,GenWind,,GenWind,
date,time,status,PA,status,PR,status,RH,status,SR,status,TA,status,DirAvg,status,SpdAvg,
2010-09-05, 00:00:04,VALID,1011.3,VALID,0,VALID,103.413,VALID,0,VALID,23.3628,VALID,150,VALID,0,
2010-09-05, 00:01:04,VALID,1011.25,VALID,0,VALID,103.42,VALID,0.105969,VALID,23.3628,VALID,150,VALID,0,
2010-09-05, 00:02:04,VALID,1011.23,VALID,0,VALID,103.398,VALID,0,VALID,23.3628,VALID,150,VALID,0,
2010-09-05, 00:03:04,VALID,1011.22,VALID,0,VALID,103.42,VALID,0,VALID,23.3823,VALID,150,VALID,0.0257812,
2010-09-05, 00:04:04,VALID,1011.23,VALID,0,VALID,103.42,VALID,0,VALID,23.3415,VALID,150,VALID,0.00585938,
2010-09-05, 00:05:04,VALID,1011.22,VALID,0,VALID,103.413,VALID,0,VALID,23.3628,VALID,150,VALID,0,
2010-09-05, 00:06:04,VALID,1011.22,VALID,0,VALID,103.405,VALID,0,VALID,23.3628,VALID,150,VALID,0,
2010-09-05, 00:07:04,VALID,1011.22,VALID,0,VALID,103.42,VALID,0,VALID,23.3433,VALID,150,VALID,0.241406,
2010-09-05, 00:08:04,VALID,1011.24,VALID,0,VALID,103.428,VALID,0,VALID,23.3238,VALID,150,VALID,0.0277344,
2010-09-05, 00:09:04,VALID,1011.25,VALID,0,VALID,103.413,VALID,0,VALID,23.3238,VALID,150,VALID,0,
2010-09-05, 00:10:04,VALID,1011.24,VALID,0,VALID,103.398,VALID,0,VALID,23.3238,VALID,150,VALID,0,
2010-09-05, 00:11:04,VALID,1011.2,VALID,0,VALID,103.405,VALID,0,VALID,23.3238,VALID,150,VALID,0,
2010-09-05, 00:12:04,VALID,1011.19,VALID,0,VALID,103.428,VALID,0,VALID,23.3043,VALID,150,VALID,0,
2010-09-05, 00:13:04,VALID,1011.18,VALID,0,VALID,103.42,VALID,0,VALID,23.3043,VALID,150,VALID,0,
2010-09-05, 00:14:04,VALID,1011.16,VALID,0,VALID,103.405,VALID,0,VALID,23.3026,VALID,150,VALID,0,
2010-09-05, 00:15:04,VALID,1011.15,VALID,0,VALID,103.405,VALID,0,VALID,23.3043,VALID,150,VALID,0,
2010-09-05, 00:16:04,VALID,1011.15,VALID,0,VALID,103.39,VALID,0,VALID,23.3043,VALID,150,VALID,0,
2010-09-05, 00:17:04,VALID,1011.11,VALID,0,VALID,103.382,VALID,0,VALID,23.3238,VALID,150,VALID,0,
2010-09-05, 00:18:04,VALID,1011.12,VALID,0,VALID,103.39,VALID,0,VALID,23.3238,VALID,150,VALID,0,
2010-09-05, 00:19:04,VALID,1011.09,VALID,0,VALID,103.382,VALID,0,VALID,23.3043,VALID,150,VALID,0,
2010-09-05, 00:20:04,VALID,1011.07,VALID,0,VALID,103.367,VALID,0,VALID,23.3238,VALID,150,VALID,0,
2010-09-05, 00:21:04,VALID,1011.09,VALID,0,VALID,103.39,VALID,0,VALID,23.3238,VALID,146,VALID,0,
2010-09-05, 00:22:04,VALID,1011.04,VALID,0,VALID,103.375,VALID,0,VALID,23.3238,VALID,330,VALID,0.531641,
2010-09-05, 00:23:04,VALID,1011.03,VALID,0,VALID,103.39,VALID,0,VALID,23.3238,VALID,328,VALID,0.4,
2010-09-05, 00:24:04,VALID,1010.97,VALID,0,VALID,103.352,VALID,0,VALID,23.3433,VALID,328,VALID,0.189453,
2010-09-05, 00:25:04,VALID,1010.96,VALID,0,VALID,103.359,VALID,0,VALID,23.3433,VALID,328,VALID,0.176172,
2010-09-05, 00:26:04,VALID,1010.93,VALID,0,VALID,103.352,VALID,0,VALID,23.322,VALID,328,VALID,0,
2010-09-05, 00:27:04,VALID,1010.91,VALID,0,VALID,103.352,VALID,0,VALID,23.3628,VALID,328,VALID,0,
2010-09-05, 00:28:04,VALID,1010.92,VALID,0,VALID,103.344,VALID,0,VALID,23.3433,VALID,328,VALID,0,
2010-09-05, 00:29:04,VALID,1010.89,VALID,0,VALID,103.344,VALID,0,VALID,23.3628,VALID,328,VALID,0,
2010-09-05, 00:30:04,VALID,1010.92,VALID,0,VALID,103.321,VALID,0,VALID,23.3628,VALID,328,VALID,0,
2010-09-05, 00:31:04,VALID,1010.9,VALID,0,VALID,103.329,VALID,0,VALID,23.3628,VALID,328,VALID,0,
2010-09-05, 00:32:04,VALID,1010.88,VALID,0,VALID,103.367,VALID,0,VALID,23.3433,VALID,17,VALID,0.609375,
2010-09-05, 00:33:04,VALID,1010.84,VALID,0,VALID,103.337,VALID,0,VALID,23.3628,VALID,17,VALID,0.175,
2010-09-05, 00:34:04,VALID,1010.88,VALID,0,VALID,103.344,VALID,0,VALID,23.3823,VALID,17,VALID,0,
2010-09-05, 00:35:04,VALID,1010.85,VALID,0,VALID,103.337,VALID,0.105969,VALID,23.3823,VALID,17,VALID,0,
2010-09-05, 00:36:04,VALID,1010.84,VALID,0,VALID,103.314,VALID,0.105969,VALID,23.3823,VALID,17,VALID,0.0492188,
2010-09-05, 00:37:04,VALID,1010.86,VALID,0,VALID,103.298,VALID,0,VALID,23.361,VALID,17,VALID,0,
2010-09-05, 00:38:04,VALID,1010.86,VALID,0,VALID,103.306,VALID,0,VALID,23.361,VALID,17,VALID,0,
2010-09-05, 00:39:04,VALID,1010.84,VALID,0,VALID,103.283,VALID,0,VALID,23.4017,VALID,17,VALID,0,
2010-09-05, 00:40:04,VALID,1010.85,VALID,0,VALID,103.314,VALID,0.105969,VALID,23.4212,VALID,17,VALID,0,
2010-09-05, 00:41:04,VALID,1010.81,VALID,0,VALID,103.306,VALID,0.105969,VALID,23.4017,VALID,17,VALID,0,
2010-09-05, 00:42:04,VALID,1010.82,VALID,0,VALID,103.359,VALID,0,VALID,23.3823,VALID,13,VALID,0.232422,
2010-09-05, 00:43:04,VALID,1010.8,VALID,0,VALID,103.352,VALID,0,VALID,23.3823,VALID,4,VALID,0.235547,
2010-09-05, 00:44:04,VALID,1010.8,VALID,0,VALID,103.329,VALID,0,VALID,23.3823,VALID,4,VALID,0,
2010-09-05, 00:45:04,VALID,1010.81,VALID,0,VALID,103.344,VALID,0,VALID,23.4017,VALID,4,VALID,0,
2010-09-05, 00:46:04,VALID,1010.79,VALID,0,VALID,103.344,VALID,0,VALID,23.361,VALID,66,VALID,0.248828,
2010-09-05, 00:47:04,VALID,1010.76,VALID,0,VALID,103.367,VALID,0,VALID,23.3628,VALID,22,VALID,0.405078,
2010-09-05, 00:48:04,VALID,1010.77,VALID,0,VALID,103.382,VALID,0,VALID,23.3628,VALID,358,VALID,0.146875,
2010-09-05, 00:49:04,VALID,1010.74,VALID,0,VALID,103.382,VALID,0.105969,VALID,23.3628,VALID,358,VALID,0,
2010-09-05, 00:50:04,VALID,1010.73,VALID,0,VALID,103.367,VALID,0,VALID,23.3415,VALID,358,VALID,0,
2010-09-05, 00:51:04,VALID,1010.75,VALID,0,VALID,103.367,VALID,0,VALID,23.3628,VALID,358,VALID,0,
2010-09-05, 00:52:04,VALID,1010.7,VALID,0,VALID,103.367,VALID,0,VALID,23.3628,VALID,358,VALID,0,
2010-09-05, 00:53:04,VALID,1010.71,VALID,0,VALID,103.375,VALID,0,VALID,23.3628,VALID,358,VALID,0,
2010-09-05, 00:54:04,VALID,1010.68,VALID,0,VALID,103.367,VALID,0,VALID,23.3628,VALID,329,VALID,0.243359,
2010-09-05, 00:55:04,VALID,1010.68,VALID,0,VALID,103.398,VALID,0.105969,VALID,23.3415,VALID,329,VALID,0,
2010-09-05, 00:56:04,VALID,1010.64,VALID,0,VALID,103.413,VALID,0,VALID,23.3433,VALID,329,VALID,0.00117188,
2010-09-05, 00:57:04,VALID,1010.59,VALID,0,VALID,103.398,VALID,0.105969,VALID,23.3628,VALID,329,VALID,0,
2010-09-05, 00:58:04,VALID,1010.56,VALID,0,VALID,103.39,VALID,0,VALID,23.3823,VALID,329,VALID,0,
2010-09-05, 00:59:04,VALID,1010.55,VALID,0,VALID,103.375,VALID,0.105969,VALID,23.3823,VALID,329,VALID,0.00429688,
2010-09-05, 01:00:04,VALID,1010.51,VALID,0,VALID,103.375,VALID,0,VALID,23.361,VALID,329,VALID,0,
2010-09-05, 01:01:04,VALID,1010.52,VALID,0,VALID,103.367,VALID,0,VALID,23.3823,VALID,329,VALID,0,
2010-09-05, 01:02:04,VALID,1010.52,VALID,0,VALID,103.413,VALID,0.105969,VALID,23.3823,VALID,329,VALID,0.279297,
2010-09-05, 01:03:04,VALID,1010.5,VALID,0,VALID,103.39,VALID,0,VALID,23.3823,VALID,329,VALID,0,
2010-09-05, 01:04:04,VALID,1010.52,VALID,0,VALID,103.382,VALID,0,VALID,23.3823,VALID,329,VALID,0,
2010-09-05, 01:05:04,VALID,1010.49,VALID,0,VALID,103.398,VALID,0,VALID,23.361,VALID,329,VALID,0,
2010-09-05, 01:06:04,VALID,1010.43,VALID,0,VALID,103.413,VALID,0,VALID,23.3823,VALID,329,VALID,0,
2010-09-05, 01:07:04,VALID,1010.4,VALID,0,VALID,103.382,VALID,0,VALID,23.3628,VALID,329,VALID,0,
2010-09-05, 01:08:04,VALID,1010.38,VALID,0,VALID,103.405,VALID,0,VALID,23.3628,VALID,329,VALID,0,
2010-09-05, 01:09:04,VALID,1010.36,VALID,0,VALID,103.413,VALID,0,VALID,23.3628,VALID,329,VALID,0,
2010-09-05, 01:10:04,VALID,1010.35,VALID,0,VALID,103.413,VALID,0,VALID,23.3628,VALID,329,VALID,0,
2010-09-05, 01:11:04,VALID,1010.33,VALID,0,VALID,103.398,VALID,0,VALID,23.3415,VALID,329,VALID,0,
2010-09-05, 01:12:04,VALID,1010.31,VALID,0,VALID,103.405,VALID,0,VALID,23.3628,VALID,329,VALID,0,
2010-09-05, 01:13:04,VALID,1010.3,VALID,0,VALID,103.398,VALID,0,VALID,23.3823,VALID,329,VALID,0,
2010-09-05, 01:14:04,VALID,1010.3,VALID,0,VALID,103.413,VALID,0,VALID,23.3628,VALID,329,VALID,0,
2010-09-05, 01:15:04,VALID,1010.29,VALID,0,VALID,103.39,VALID,0,VALID,23.3628,VALID,329,VALID,0,
2010-09-05, 01:16:04,VALID,1010.28,VALID,0,VALID,103.39,VALID,0,VALID,23.3823,VALID,329,VALID,0,
2010-09-05, 01:17:04,VALID,1010.3,VALID,0,VALID,103.398,VALID,0.105969,VALID,23.3628,VALID,329,VALID,0,
2010-09-05, 01:18:04,VALID,1010.3,VALID,0,VALID,103.405,VALID,0,VALID,23.3628,VALID,329,VALID,0,
2010-09-05, 01:19:04,VALID,1010.3,VALID,0,VALID,103.413,VALID,0,VALID,23.3628,VALID,329,VALID,0,
2010-09-05, 01:20:04,VALID,1010.31,VALID,0,VALID,103.436,VALID,0,VALID,23.3433,VALID,329,VALID,0,
2010-09-05, 01:21:04,VALID,1010.29,VALID,0,VALID,103.405,VALID,0,VALID,23.3238,VALID,329,VALID,0,
2010-09-05, 01:22:04,VALID,1010.28,VALID,0,VALID,103.39,VALID,0,VALID,23.3433,VALID,329,VALID,0,
2010-09-05, 01:23:04,VALID,1010.27,VALID,0,VALID,103.398,VALID,0,VALID,23.3238,VALID,329,VALID,0,
2010-09-05, 01:24:04,VALID,1010.29,VALID,0,VALID,103.413,VALID,0,VALID,23.3238,VALID,329,VALID,0,
2010-09-05, 01:25:04,VALID,1010.3,VALID,0,VALID,103.413,VALID,0,VALID,23.3238,VALID,329,VALID,0,
2010-09-05, 01:26:04,VALID,1010.26,VALID,0,VALID,103.405,VALID,0,VALID,23.3043,VALID,329,VALID,0,
2010-09-05, 01:27:04,VALID,1010.28,VALID,0,VALID,103.428,VALID,0,VALID,23.3043,VALID,329,VALID,0,
2010-09-05, 01:28:04,VALID,1010.27,VALID,0,VALID,103.428,VALID,0,VALID,23.3043,VALID,329,VALID,0,
2010-09-05, 01:29:04,VALID,1010.27,VALID,0,VALID,103.42,VALID,0,VALID,23.2848,VALID,329,VALID,0,
2010-09-05, 01:30:04,VALID,1010.27,VALID,0,VALID,103.428,VALID,0,VALID,23.2866,VALID,329,VALID,0,
2010-09-05, 01:31:04,VALID,1010.25,VALID,0,VALID,103.405,VALID,0,VALID,23.2848,VALID,329,VALID,0.323047,
2010-09-05, 01:32:04,VALID,1010.26,VALID,0,VALID,103.398,VALID,0,VALID,23.2848,VALID,329,VALID,0.415234,
2010-09-05, 01:33:04,VALID,1010.21,VALID,0,VALID,103.382,VALID,0,VALID,23.2848,VALID,329,VALID,0.338672,
2010-09-05, 01:34:04,VALID,1010.22,VALID,0,VALID,103.382,VALID,0.105969,VALID,23.3043,VALID,329,VALID,0,
2010-09-05, 01:35:04,VALID,1010.2,VALID,0,VALID,103.398,VALID,0,VALID,23.2848,VALID,329,VALID,0.240234,
2010-09-05, 01:36:04,VALID,1010.17,VALID,0,VALID,103.405,VALID,0,VALID,23.2654,VALID,329,VALID,0.351563,
2010-09-05, 01:37:04,VALID,1010.16,VALID,0,VALID,103.398,VALID,0,VALID,23.2866,VALID,329,VALID,0.265625,
2010-09-05, 01:38:04,VALID,1010.13,VALID,0,VALID,103.375,VALID,0,VALID,23.2654,VALID,329,VALID,0,
2010-09-05, 01:39:04,VALID,1010.1,VALID,0,VALID,103.382,VALID,0,VALID,23.2654,VALID,329,VALID,0,
2010-09-05, 01:40:04,VALID,1010.1,VALID,0,VALID,103.382,VALID,0,VALID,23.2848,VALID,329,VALID,0,
2010-09-05, 01:41:04,VALID,1010.07,VALID,0,VALID,103.39,VALID,0,VALID,23.2654,VALID,54,VALID,0.203125,
2010-09-05, 01:42:04,VALID,1010.09,VALID,0,VALID,103.405,VALID,0,VALID,23.2459,VALID,54,VALID,0.201953,
2010-09-05, 01:43:04,VALID,1010.05,VALID,0,VALID,103.428,VALID,0,VALID,23.2264,VALID,54,VALID,0.352344,
2010-09-05, 01:44:04,VALID,1010.04,VALID,0,VALID,103.405,VALID,0,VALID,23.2264,VALID,54,VALID,0,
2010-09-05, 01:45:04,VALID,1010.03,VALID,0,VALID,103.382,VALID,0,VALID,23.2069,VALID,54,VALID,0,
2010-09-05, 01:46:04,VALID,1010.01,VALID,0,VALID,103.382,VALID,0,VALID,23.2264,VALID,54,VALID,0.1375,
2010-09-05, 01:47:04,VALID,1010,VALID,0,VALID,103.382,VALID,0,VALID,23.2264,VALID,54,VALID,0,
2010-09-05, 01:48:04,VALID,1009.97,VALID,0,VALID,103.367,VALID,0,VALID,23.2264,VALID,54,VALID,0.190234,
2010-09-05, 01:49:04,VALID,1009.96,VALID,0,VALID,103.39,VALID,0,VALID,23.2069,VALID,54,VALID,0.172266,
2010-09-05, 01:50:04,VALID,1009.9,VALID,0,VALID,103.382,VALID,0,VALID,23.1874,VALID,101,VALID,0.617969,
2010-09-05, 01:51:04,VALID,1009.91,VALID,0,VALID,103.39,VALID,0,VALID,23.2069,VALID,94,VALID,0.149219,
2010-09-05, 01:52:04,VALID,1009.9,VALID,0,VALID,103.405,VALID,0,VALID,23.2069,VALID,94,VALID,0.435156,
2010-09-05, 01:53:04,VALID,1009.88,VALID,0,VALID,103.375,VALID,0,VALID,23.2069,VALID,94,VALID,0,
2010-09-05, 01:54:04,VALID,1009.88,VALID,0,VALID,103.367,VALID,0,VALID,23.2069,VALID,94,VALID,0.0699219,
2010-09-05, 01:55:04,VALID,1009.84,VALID,0,VALID,103.382,VALID,0,VALID,23.1874,VALID,94,VALID,0.0316406,
2010-09-05, 01:56:04,VALID,1009.82,VALID,0,VALID,103.367,VALID,0,VALID,23.1874,VALID,94,VALID,0,
2010-09-05, 01:57:04,VALID,1009.81,VALID,0,VALID,103.375,VALID,0,VALID,23.1874,VALID,94,VALID,0,
2010-09-05, 01:58:04,VALID,1009.78,VALID,0,VALID,103.367,VALID,0,VALID,23.1874,VALID,94,VALID,0.0203125,
2010-09-05, 01:59:04,VALID,1009.74,VALID,0,VALID,103.39,VALID,0,VALID,23.1892,VALID,94,VALID,0,
2010-09-05, 02:00:04,VALID,1009.72,VALID,0,VALID,103.382,VALID,0,VALID,23.1679,VALID,94,VALID,0,
2010-09-05, 02:01:04,VALID,1009.69,VALID,0,VALID,103.398,VALID,0,VALID,23.1874,VALID,94,VALID,0,
2010-09-05, 02:02:04,VALID,1009.69,VALID,0,VALID,103.382,VALID,0,VALID,23.1874,VALID,94,VALID,0,
2010-09-05, 02:03:04,VALID,1009.66,VALID,0,VALID,103.375,VALID,0,VALID,23.1874,VALID,94,VALID,0,
2010-09-05, 02:04:04,VALID,1009.65,VALID,0,VALID,103.359,VALID,0,VALID,23.1679,VALID,94,VALID,0,
2010-09-05, 02:05:04,VALID,1009.65,VALID,0,VALID,103.382,VALID,0,VALID,23.1679,VALID,69,VALID,0.368359,
2010-09-05, 02:06:04,VALID,1009.69,VALID,0,VALID,103.382,VALID,0,VALID,23.1874,VALID,69,VALID,0,
2010-09-05, 02:07:04,VALID,1009.66,VALID,0,VALID,103.382,VALID,0,VALID,23.1679,VALID,69,VALID,0,
2010-09-05, 02:08:04,VALID,1009.67,VALID,0,VALID,103.382,VALID,0,VALID,23.1679,VALID,69,VALID,0,
2010-09-05, 02:09:05,VALID,1009.64,VALID,0,VALID,103.359,VALID,0,VALID,23.1679,VALID,69,VALID,0,
2010-09-05, 02:10:05,VALID,1009.63,VALID,0,VALID,103.382,VALID,0,VALID,23.1679,VALID,69,VALID,0,
2010-09-05, 02:11:05,VALID,1009.63,VALID,0,VALID,103.382,VALID,0,VALID,23.1892,VALID,70,VALID,0,
2010-09-05, 02:12:05,VALID,1009.63,VALID,0,VALID,103.367,VALID,0,VALID,23.1679,VALID,69,VALID,0.0234375,
2010-09-05, 02:13:05,VALID,1009.62,VALID,0,VALID,103.375,VALID,0,VALID,23.1679,VALID,66,VALID,0.00117188,
2010-09-05, 02:14:05,VALID,1009.58,VALID,0,VALID,103.359,VALID,0,VALID,23.1679,VALID,298,VALID,0.141797,
2010-09-05, 02:15:05,VALID,1009.56,VALID,0,VALID,103.359,VALID,0,VALID,23.1874,VALID,298,VALID,0.0046875,
2010-09-05, 02:16:05,VALID,1009.55,VALID,0,VALID,103.359,VALID,0,VALID,23.2087,VALID,298,VALID,0,
2010-09-05, 02:17:05,VALID,1009.52,VALID,0,VALID,103.337,VALID,0,VALID,23.1874,VALID,298,VALID,0.239844,
2010-09-05, 02:18:05,VALID,1009.5,VALID,0,VALID,103.367,VALID,0,VALID,23.1874,VALID,298,VALID,0.20625,
2010-09-05, 02:19:05,VALID,1009.51,VALID,0,VALID,103.375,VALID,0,VALID,23.1874,VALID,297,VALID,0.616016,
2010-09-05, 02:20:05,VALID,1009.5,VALID,0,VALID,103.359,VALID,0,VALID,23.1874,VALID,309,VALID,0.287891,
2010-09-05, 02:21:05,VALID,1009.52,VALID,0,VALID,103.367,VALID,0,VALID,23.1874,VALID,309,VALID,0.205469,
2010-09-05, 02:22:05,VALID,1009.52,VALID,0,VALID,103.39,VALID,0,VALID,23.1874,VALID,309,VALID,0.0632813,
2010-09-05, 02:23:05,VALID,1009.51,VALID,0,VALID,103.375,VALID,0,VALID,23.1874,VALID,309,VALID,0,
2010-09-05, 02:24:05,VALID,1009.51,VALID,0,VALID,103.375,VALID,0,VALID,23.1874,VALID,309,VALID,0,
2010-09-05, 02:25:05,VALID,1009.49,VALID,0,VALID,103.382,VALID,0,VALID,23.1679,VALID,309,VALID,0,
2010-09-05, 02:26:05,VALID,1009.47,VALID,0,VALID,103.398,VALID,0,VALID,23.1679,VALID,309,VALID,0,
2010-09-05, 02:27:05,VALID,1009.47,VALID,0,VALID,103.39,VALID,0,VALID,23.1679,VALID,309,VALID,0,
2010-09-05, 02:28:05,VALID,1009.44,VALID,0,VALID,103.382,VALID,0,VALID,23.1679,VALID,309,VALID,0.05,
2010-09-05, 02:29:05,VALID,1009.44,VALID,0,VALID,103.382,VALID,0,VALID,23.1679,VALID,309,VALID,0.00195313,
2010-09-05, 02:30:05,VALID,1009.43,VALID,0,VALID,103.39,VALID,0,VALID,23.1679,VALID,309,VALID,0.0265625,
2010-09-05, 02:31:05,VALID,1009.43,VALID,0,VALID,103.398,VALID,0,VALID,23.1485,VALID,309,VALID,0,
2010-09-05, 02:32:05,VALID,1009.42,VALID,0,VALID,103.382,VALID,0,VALID,23.1485,VALID,309,VALID,0,
2010-09-05, 02:33:05,VALID,1009.37,VALID,0,VALID,103.375,VALID,0,VALID,23.1679,VALID,309,VALID,0.0160156,
2010-09-05, 02:34:05,VALID,1009.36,VALID,0,VALID,103.359,VALID,0,VALID,23.1679,VALID,309,VALID,0.186328,
2010-09-05, 02:35:05,VALID,1009.35,VALID,0,VALID,103.382,VALID,0,VALID,23.1679,VALID,309,VALID,0.0148437,
2010-09-05, 02:36:05,VALID,1009.39,VALID,0,VALID,103.367,VALID,0,VALID,23.1679,VALID,309,VALID,0.214062,
2010-09-05, 02:37:05,VALID,1009.38,VALID,0,VALID,103.382,VALID,0,VALID,23.1679,VALID,309,VALID,0.04375,
2010-09-05, 02:38:05,VALID,1009.39,VALID,0,VALID,103.367,VALID,0.105969,VALID,23.1467,VALID,309,VALID,0,
2010-09-05, 02:39:05,VALID,1009.39,VALID,0,VALID,103.375,VALID,0,VALID,23.1679,VALID,309,VALID,0,
2010-09-05, 02:40:05,VALID,1009.37,VALID,0,VALID,103.375,VALID,0,VALID,23.1467,VALID,309,VALID,0,
2010-09-05, 02:41:05,VALID,1009.42,VALID,0,VALID,103.359,VALID,0,VALID,23.1679,VALID,309,VALID,0,
2010-09-05, 02:42:05,VALID,1009.47,VALID,0,VALID,103.382,VALID,0,VALID,23.1485,VALID,309,VALID,0,
2010-09-05, 02:43:05,VALID,1009.47,VALID,0,VALID,103.375,VALID,0,VALID,23.1485,VALID,309,VALID,0.122656,
2010-09-05, 02:44:05,VALID,1009.48,VALID,0,VALID,103.375,VALID,0,VALID,23.1485,VALID,14,VALID,0.3375,
2010-09-05, 02:45:05,VALID,1009.5,VALID,0,VALID,103.375,VALID,0,VALID,23.1485,VALID,36,VALID,0.01875,
2010-09-05, 02:46:05,VALID,1009.5,VALID,0,VALID,103.359,VALID,0,VALID,23.129,VALID,36,VALID,0,
2010-09-05, 02:47:05,VALID,1009.54,VALID,0,VALID,103.39,VALID,0,VALID,23.1485,VALID,36,VALID,0,
2010-09-05, 02:48:05,VALID,1009.55,VALID,0,VALID,103.375,VALID,0,VALID,23.1272,VALID,36,VALID,0,
2010-09-05, 02:49:05,VALID,1009.56,VALID,0,VALID,103.359,VALID,0,VALID,23.1485,VALID,36,VALID,0,
2010-09-05, 02:50:05,VALID,1009.55,VALID,0,VALID,103.352,VALID,0,VALID,23.1485,VALID,36,VALID,0.397656,
2010-09-05, 02:51:05,VALID,1009.55,VALID,0,VALID,103.375,VALID,0,VALID,23.1485,VALID,68,VALID,0.475,
2010-09-05, 02:52:05,VALID,1009.56,VALID,0,VALID,103.382,VALID,0,VALID,23.1502,VALID,68,VALID,0,
2010-09-05, 02:53:05,VALID,1009.51,VALID,0,VALID,103.382,VALID,0,VALID,23.129,VALID,68,VALID,0,
2010-09-05, 02:54:05,VALID,1009.52,VALID,0,VALID,103.375,VALID,0,VALID,23.129,VALID,68,VALID,0,
2010-09-05, 02:55:05,VALID,1009.51,VALID,0,VALID,103.359,VALID,0,VALID,23.1485,VALID,68,VALID,0,
2010-09-05, 02:56:05,VALID,1009.5,VALID,0,VALID,103.367,VALID,0,VALID,23.1485,VALID,68,VALID,0,
2010-09-05, 02:57:05,VALID,1009.53,VALID,0,VALID,103.382,VALID,0,VALID,23.1485,VALID,68,VALID,0,
2010-09-05, 02:58:05,VALID,1009.52,VALID,0,VALID,103.375,VALID,0,VALID,23.129,VALID,68,VALID,0.222656,
2010-09-05, 02:59:05,VALID,1009.53,VALID,0,VALID,103.375,VALID,0,VALID,23.1077,VALID,68,VALID,0.0566406,
2010-09-05, 03:00:05,VALID,1009.55,VALID,0,VALID,103.382,VALID,0,VALID,23.129,VALID,68,VALID,0,
2010-09-05, 03:01:05,VALID,1009.55,VALID,0,VALID,103.39,VALID,0,VALID,23.129,VALID,68,VALID,0,
2010-09-05, 03:02:05,VALID,1009.54,VALID,0,VALID,103.382,VALID,0,VALID,23.129,VALID,68,VALID,0,
2010-09-05, 03:03:05,VALID,1009.54,VALID,0,VALID,103.398,VALID,0,VALID,23.1485,VALID,68,VALID,0,
2010-09-05, 03:04:05,VALID,1009.51,VALID,0,VALID,103.398,VALID,0,VALID,23.1095,VALID,68,VALID,0.403125,
2010-09-05, 03:05:05,VALID,1009.51,VALID,0,VALID,103.413,VALID,0,VALID,23.1095,VALID,68,VALID,0,
2010-09-05, 03:06:05,VALID,1009.53,VALID,0,VALID,103.405,VALID,0,VALID,23.129,VALID,68,VALID,0,
2010-09-05, 03:07:05,VALID,1009.57,VALID,0,VALID,103.398,VALID,0,VALID,23.1485,VALID,68,VALID,0,
2010-09-05, 03:08:05,VALID,1009.55,VALID,0,VALID,103.382,VALID,0,VALID,23.1485,VALID,68,VALID,0.256641,
2010-09-05, 03:09:05,VALID,1009.59,VALID,0,VALID,103.39,VALID,0,VALID,23.1679,VALID,68,VALID,0.228906,
2010-09-05, 03:10:05,VALID,1009.59,VALID,0,VALID,103.39,VALID,0,VALID,23.1892,VALID,68,VALID,0,
2010-09-05, 03:11:05,VALID,1009.59,VALID,0,VALID,103.382,VALID,0,VALID,23.1679,VALID,68,VALID,0,
2010-09-05, 03:12:05,VALID,1009.56,VALID,0,VALID,103.39,VALID,0.105969,VALID,23.1874,VALID,68,VALID,0,
2010-09-05, 03:13:05,VALID,1009.57,VALID,0,VALID,103.398,VALID,0,VALID,23.1874,VALID,68,VALID,0,
2010-09-05, 03:14:05,VALID,1009.55,VALID,0,VALID,103.382,VALID,0,VALID,23.1874,VALID,68,VALID,0,
2010-09-05, 03:15:05,VALID,1009.55,VALID,0,VALID,103.413,VALID,0,VALID,23.1662,VALID,68,VALID,0,
2010-09-05, 03:16:05,VALID,1009.54,VALID,0,VALID,103.405,VALID,0,VALID,23.1874,VALID,68,VALID,0.125,
2010-09-05, 03:17:05,VALID,1009.57,VALID,0,VALID,103.405,VALID,0,VALID,23.1892,VALID,99,VALID,0.45625,
2010-09-05, 03:18:05,VALID,1009.54,VALID,0,VALID,103.413,VALID,0,VALID,23.1874,VALID,99,VALID,0.741797,
2010-09-05, 03:19:05,VALID,1009.55,VALID,0,VALID,103.436,VALID,0,VALID,23.1874,VALID,98,VALID,0.501953,
2010-09-05, 03:20:05,VALID,1009.54,VALID,0,VALID,103.436,VALID,0.105969,VALID,23.2069,VALID,97,VALID,0.513672,
2010-09-05, 03:21:05,VALID,1009.54,VALID,0,VALID,103.474,VALID,0,VALID,23.2069,VALID,98,VALID,0.432813,
2010-09-05, 03:22:05,VALID,1009.52,VALID,0,VALID,103.459,VALID,0,VALID,23.2264,VALID,119,VALID,0.439453,
2010-09-05, 03:23:05,VALID,1009.54,VALID,0,VALID,103.436,VALID,0,VALID,23.2459,VALID,120,VALID,0.514844,
2010-09-05, 03:24:05,VALID,1009.55,VALID,0,VALID,103.466,VALID,0,VALID,23.2476,VALID,127,VALID,0.71875,
2010-09-05, 03:25:05,VALID,1009.53,VALID,0,VALID,103.466,VALID,0,VALID,23.2459,VALID,132,VALID,0.692187,
2010-09-05, 03:26:05,VALID,1009.54,VALID,0,VALID,103.489,VALID,0,VALID,23.2264,VALID,140,VALID,0.932813,
2010-09-05, 03:27:05,VALID,1009.55,VALID,0,VALID,103.481,VALID,0,VALID,23.2069,VALID,139,VALID,0.888281,
2010-09-05, 03:28:05,VALID,1009.53,VALID,0,VALID,103.489,VALID,0,VALID,23.2069,VALID,139,VALID,0.747266,
2010-09-05, 03:29:05,VALID,1009.57,VALID,0,VALID,103.474,VALID,0,VALID,23.2264,VALID,139,VALID,0.324219,
2010-09-05, 03:30:05,VALID,1009.56,VALID,0,VALID,103.474,VALID,0,VALID,23.1874,VALID,139,VALID,0.294922,
2010-09-05, 03:31:05,VALID,1009.54,VALID,0,VALID,103.466,VALID,0,VALID,23.1874,VALID,139,VALID,0.410937,
2010-09-05, 03:32:05,VALID,1009.51,VALID,0,VALID,103.474,VALID,0,VALID,23.1679,VALID,139,VALID,0.622266,
2010-09-05, 03:33:05,VALID,1009.52,VALID,0,VALID,103.474,VALID,0,VALID,23.1679,VALID,120,VALID,0.526563,
2010-09-05, 03:34:05,VALID,1009.52,VALID,0,VALID,103.481,VALID,0,VALID,23.1697,VALID,126,VALID,0.792969,
2010-09-05, 03:35:05,VALID,1009.53,VALID,0,VALID,103.466,VALID,0,VALID,23.1485,VALID,139,VALID,0.631641,
2010-09-05, 03:36:05,VALID,1009.57,VALID,0,VALID,103.474,VALID,0.105969,VALID,23.1467,VALID,118,VALID,0.798047,
2010-09-05, 03:37:05,VALID,1009.6,VALID,0,VALID,103.481,VALID,0.105969,VALID,23.1467,VALID,115,VALID,0.5625,
2010-09-05, 03:38:05,VALID,1009.6,VALID,0,VALID,103.474,VALID,0.105969,VALID,23.1679,VALID,105,VALID,0.901172,
2010-09-05, 03:39:05,VALID,1009.62,VALID,0,VALID,103.481,VALID,0.105969,VALID,23.1467,VALID,105,VALID,0.757813,
2010-09-05, 03:40:05,VALID,1009.64,VALID,0,VALID,103.474,VALID,0.105969,VALID,23.1467,VALID,122,VALID,0.805469,
2010-09-05, 03:41:05,VALID,1009.63,VALID,0,VALID,103.481,VALID,0.105969,VALID,23.1467,VALID,120,VALID,1.02305,
2010-09-05, 03:42:05,VALID,1009.64,VALID,0,VALID,103.466,VALID,0.105969,VALID,23.1272,VALID,120,VALID,0.649219,
2010-09-05, 03:43:05,VALID,1009.62,VALID,0,VALID,103.474,VALID,0.211938,VALID,23.106,VALID,132,VALID,0.773047,
2010-09-05, 03:44:05,VALID,1009.6,VALID,0,VALID,103.489,VALID,0.105969,VALID,23.1272,VALID,132,VALID,0.700781,
2010-09-05, 03:45:05,VALID,1009.61,VALID,0,VALID,103.474,VALID,0.105969,VALID,23.1272,VALID,129,VALID,0.34375,
2010-09-05, 03:46:05,VALID,1009.61,VALID,0,VALID,103.474,VALID,0.105969,VALID,23.106,VALID,129,VALID,0.538672,
2010-09-05, 03:47:05,VALID,1009.64,VALID,0,VALID,103.474,VALID,0.105969,VALID,23.1485,VALID,141,VALID,0.486719,
2010-09-05, 03:48:05,VALID,1009.65,VALID,0,VALID,103.481,VALID,0.105969,VALID,23.1077,VALID,141,VALID,0.30625,
2010-09-05, 03:49:05,VALID,1009.61,VALID,0,VALID,103.489,VALID,0.105969,VALID,23.0883,VALID,141,VALID,0.576953,
2010-09-05, 03:50:05,VALID,1009.63,VALID,0,VALID,103.481,VALID,0.105969,VALID,23.1077,VALID,137,VALID,0.413672,
2010-09-05, 03:51:05,VALID,1009.65,VALID,0,VALID,103.459,VALID,0,VALID,23.1095,VALID,124,VALID,0.683594,